TimePDT,TemperatureF,Dew PointF,Humidity,Sea Level PressureIn,VisibilityMPH,Wind Direction,Wind SpeedMPH,Gust SpeedMPH,PrecipitationIn,Events,Conditions,WindDirDegrees,DateUTC
12:53 AM,63.0,57.0,81,30.04,10.0,Calm,Calm,-,N/A,,Overcast,0,2013-08-03 07:53:00
1:53 AM,62.1,57.0,84,30.04,10.0,NE,3.5,-,0.00,,Overcast,50,2013-08-03 08:53:00
2:53 AM,62.1,57.0,84,30.04,10.0,Calm,Calm,-,N/A,,Overcast,0,2013-08-03 09:53:00
3:53 AM,61.0,57.0,87,30.04,10.0,Calm,Calm,-,N/A,,Overcast,0,2013-08-03 10:53:00
4:53 AM,62.1,57.0,84,30.05,10.0,Calm,Calm,-,N/A,,Overcast,0,2013-08-03 11:53:00
5:53 AM,61.0,57.9,90,30.06,10.0,Calm,Calm,-,N/A,,Overcast,0,2013-08-03 12:53:00
6:53 AM,61.0,57.9,90,30.07,10.0,Calm,Calm,-,N/A,,Overcast,0,2013-08-03 13:53:00
7:27 AM,62.6,57.2,82,30.09,10.0,NNE,4.6,-,N/A,,Overcast,20,2013-08-03 14:27:00
7:53 AM,63.0,57.0,81,30.08,10.0,ENE,4.6,-,N/A,,Overcast,60,2013-08-03 14:53:00
8:24 AM,62.6,57.2,82,30.10,10.0,NNE,4.6,-,N/A,,Overcast,30,2013-08-03 15:24:00
8:53 AM,64.0,57.9,80,30.09,10.0,NE,4.6,-,N/A,,Overcast,50,2013-08-03 15:53:00
9:53 AM,64.9,57.0,75,30.09,10.0,Calm,Calm,-,N/A,,Overcast,0,2013-08-03 16:53:00
10:11 AM,64.4,57.2,77,30.10,10.0,Variable,3.5,-,N/A,,Overcast,0,2013-08-03 17:11:00
10:53 AM,66.0,57.0,73,30.10,10.0,Calm,Calm,-,N/A,,Overcast,0,2013-08-03 17:53:00
11:53 AM,70.0,55.9,61,30.09,10.0,East,5.8,-,N/A,,Overcast,100,2013-08-03 18:53:00
12:53 PM,75.0,55.0,50,30.08,10.0,ENE,6.9,-,N/A,,Overcast,60,2013-08-03 19:53:00
1:53 PM,75.0,55.0,50,30.07,10.0,Variable,5.8,-,N/A,,Mostly Cloudy,0,2013-08-03 20:53:00
2:53 PM,75.9,54.0,46,30.06,10.0,Calm,Calm,-,N/A,,Overcast,0,2013-08-03 21:53:00
3:53 PM,79.0,54.0,42,30.03,10.0,Variable,5.8,-,N/A,,Scattered Clouds,0,2013-08-03 22:53:00
4:53 PM,80.1,53.1,39,30.01,10.0,Variable,3.5,-,N/A,,Clear,0,2013-08-03 23:53:00
5:53 PM,79.0,54.0,42,29.99,10.0,ESE,3.5,-,N/A,,Clear,120,2013-08-04 00:53:00
6:53 PM,79.0,54.0,42,29.99,10.0,SSW,3.5,-,N/A,,Clear,210,2013-08-04 01:53:00
7:53 PM,75.9,54.0,46,29.99,10.0,South,5.8,-,N/A,,Clear,190,2013-08-04 02:53:00
8:53 PM,70.0,54.0,57,30.00,10.0,South,4.6,-,N/A,,Clear,180,2013-08-04 03:53:00
9:53 PM,69.1,55.0,61,30.01,10.0,WSW,4.6,-,N/A,,Clear,250,2013-08-04 04:53:00
10:53 PM,70.0,54.0,57,30.01,10.0,Calm,Calm,-,N/A,,Clear,0,2013-08-04 05:53:00
11:53 PM,69.1,54.0,58,30.00,10.0,NW,5.8,-,N/A,,Clear,310,2013-08-04 06:53:00